Probability
0 0 0 0 0 0 0 0 0 0 0 0 0 0 0 0 0 0 0 6 87 61 45 100 100 100 100 97 94 84 61 35 13 3 0 0 0 0 0 0 0 0 0 0 0 0 0 0 0
0 0 0 0 0 0 0 0 0 0 0 0 0 0 0 0 0 0 0 52 90 45 23 71 100 100 100 97 87 58 39 16 3 3 0 0 0 0 0 0 0 0 0 0 0 0 0 0 0
0 0 0 0 0 0 0 0 0 0 0 0 0 0 0 0 0 0 0 55 81 29 16 90 100 100 100 97 74 48 26 6 3 0 0 0 0 0 0 0 0 0 0 0 0 0 0 0 0
0 0 0 0 0 0 0 0 0 0 0 0 0 0 0 0 0 0 3 48 65 39 42 90 100 100 97 87 65 42 13 6 3 0 0 0 0 0 0 0 0 0 0 0 0 0 0 0 0
0 0 0 0 0 0 0 0 0 0 0 0 0 0 0 0 0 0 10 29 39 45 19 55 100 94 90 81 61 42 13 3 3 0 0 0 0 0 0 0 0 0 0 0 0 0 0 0 0
0 0 0 0 0 0 0 0 0 0 0 0 0 0 0 0 0 0 3 6 16 29 6 39 100 97 84 74 52 42 13 3 0 0 0 0 0 0 0 0 0 0 0 0 0 0 0 0 0
0 0 0 0 0 0 0 0 0 0 0 0 0 0 0 0 0 0 0 0 6 26 3 0 13 13 29 32 32 35 23 3 0 0 0 0 0 0 0 0 0 0 0 0 0 0 0 0 0
0 0 0 0 0 0 0 0 0 0 0 0 0 0 0 6 6 3 0 0 0 6 3 0 3 3 3 3 0 3 0 0 0 0 0 0 0 0 0 0 0 0 0 0 0 0 0 0 0
0 0 0 0 0 0 0 0 0 0 0 0 0 0 13 16 16 16 13 10 3 3 3 0 0 0 0 0 0 0 0 0 0 0 0 0 0 0 0 0 0 0 0 0 0 0 0 0 0
0 0 0 0 0 0 0 0 0 0 0 0 0 0 0 6 26 23 19 10 0 0 0 0 0 0 0 0 0 0 0 0 0 0 0 0 0 0 0 0 0 0 0 0 0 0 0 0 0
0 0 0 0 0 0 0 0 0 0 0 0 0 0 0 3 13 13 10 3 10 6 3 0 0 0 0 0 0 0 0 0 0 0 0 0 0 0 0 0 0 0 0 0 0 0 0 0 0
0 0 0 0 0 0 0 0 0 0 0 0 0 0 0 0 0 3 3 3 0 6 3 0 3 0 0 0 0 0 0 0 0 0 0 0 0 0 0 0 0 0 0 0 0 0 0 0 0
0 0 0 0 0 0 0 0 0 0 0 0 0 0 0 0 0 0 3 3 3 6 6 0 0 0 0 0 0 0 0 0 0 0 0 0 0 0 0 0 0 0 0 0 0 0 0 0 0
0 0 0 0 0 0 0 0 0 0 0 0 0 0 0 0 0 0 0 0 0 3 6 3 0 0 0 0 0 0 0 0 0 0 0 0 0 0 0 0 0 0 0 0 0 0 0 0 0
0 0 0 0 0 0 0 0 0 0 0 0 0 0 0 0 0 0 0 0 0 0 3 3 0 3 3 3 3 3 3 0 0 0 0 0 0 0 0 0 0 0 0 0 0 0 0 0 0
0 0 0 0 0 0 0 0 0 0 0 0 0 0 0 0 0 0 0 0 0 0 0 0 13 10 6 10 13 6 6 6 3 0 0 0 0 0 0 0 0 0 0 0 0 0 0 0 0
0 0 0 0 0 0 0 0 0 0 0 0 0 0 0 0 0 0 0 0 0 0 0 0 10 10 13 13 19 13 13 3 3 3 3 0 0 0 0 0 0 0 0 0 0 0 0 0 0
0 0 0 0 0 0 0 0 0 0 0 0 0 0 0 0 0 0 0 0 0 0 0 0 0 3 13 13 23 16 13 6 3 3 3 0 0 0 0 0 0 0 0 0 0 0 0 0 0
0 0 0 0 0 0 0 0 0 0 0 0 0 0 0 0 0 0 0 0 0 0 0 0 0 0 0 0 10 13 6 6 0 0 3 3 0 0 0 0 0 0 0 0 0 0 0 0 0
0 0 0 0 0 0 0 0 0 0 0 0 0 0 0 0 0 0 0 0 0 0 0 0 0 0 0 0 0 3 6 10 3 0 0 0 0 0 0 0 0 0 0 0 0 0 0 0 0
0 0 0 0 0 0 0 0 0 0 0 0 0 0 0 0 0 0 0 0 0 0 0 0 0 0 0 0 0 0 0 0 0 3 3 0 0 0 0 0 0 0 0 0 0 0 0 0 0
0 0 0 0 0 0 0 0 0 0 0 0 0 0 0 0 0 0 0 0 0 0 0 0 0 0 0 0 0 0 0 0 0 0 0 0 3 0 0 0 0 0 0 0 0 0 0 0 0
0 0 0 0 0 0 0 0 0 0 0 0 0 0 0 0 0 0 0 0 0 0 0 0 0 0 0 0 0 0 0 0 0 0 0 0 0 0 0 0 0 0 0 0 0 0 0 0 0
0 0 0 0 0 0 0 0 0 0 0 0 0 0 0 0 0 0 0 0 0 0 0 0 0 0 0 0 0 0 0 0 0 0 0 0 0 0 0 0 0 0 0 0 0 0 0 0 0
0 0 0 0 0 0 0 0 0 0 0 0 0 0 0 0 0 0 0 0 0 0 0 0 0 0 0 0 0 0 0 0 0 0 0 0 0 0 0 0 0 0 0 0 0 0 0 0 0
0 0 0 0 0 0 0 0 0 0 0 0 0 0 0 0 0 0 0 0 0 0 0 0 0 0 0 0 0 0 0 0 0 0 0 0 0 0 0 0 0 0 0 0 0 0 0 0 0
0 0 0 0 0 0 0 0 0 0 0 0 0 0 0 0 0 0 0 0 0 0 0 0 0 0 0 0 0 0 0 0 0 0 0 0 0 0 0 0 0 0 0 0 0 0 0 0 0
0 0 0 0 0 0 0 0 0 0 0 0 0 0 0 0 0 0 0 0 0 0 0 0 0 0 0 0 0 0 0 0 0 0 0 0 0 0 0 0 0 0 0 0 0 0 0 0 0
0 0 0 0 0 0 0 0 0 0 0 0 0 0 0 0 0 0 0 0 0 0 0 0 0 0 0 0 0 0 0 0 0 0 0 0 0 0 0 0 0 0 0 0 0 0 3 0 0
0 0 0 0 0 0 0 0 0 0 0 0 0 0 0 0 0 0 0 0 0 0 0 0 0 0 0 0 0 0 0 0 0 0 0 0 0 0 0 0 0 0 0 0 0 0 0 0 0
Height
5802 5807 5812 5818 5824 5829 5835 5839 5840 5844 5848 5852 5858 5862 5864 5865 5866 5871 5873 5874 5876 5877 5878 5880 5881 5882 5883 5884 5885 5886 5886 5887 5887 5887 5888 5888 5888 5888 5888 5888 5888 5888 5888 5888 5888 5887 5886 5886 5885
5795 5801 5806 5811 5817 5824 5831 5833 5835 5840 5845 5852 5856 5859 5862 5861 5864 5868 5870 5872 5874 5875 5877 5878 5879 5881 5882 5883 5883 5884 5885 5885 5885 5885 5886 5886 5886 5886 5886 5886 5886 5886 5886 5886 5885 5885 5884 5884 5883
5787 5792 5799 5805 5812 5820 5828 5829 5830 5834 5842 5847 5851 5855 5856 5856 5863 5866 5868 5869 5871 5873 5875 5876 5877 5879 5880 5881 5882 5882 5883 5883 5883 5884 5884 5884 5884 5884 5884 5884 5884 5883 5883 5883 5883 5882 5882 5881 5881
5779 5785 5792 5799 5807 5815 5820 5820 5824 5831 5838 5842 5847 5850 5851 5857 5862 5863 5864 5866 5869 5871 5872 5873 5875 5876 5877 5879 5880 5880 5881 5881 5881 5882 5882 5882 5882 5882 5881 5881 5881 5881 5881 5880 5880 5879 5879 5879 5878
5771 5778 5785 5793 5802 5810 5814 5814 5821 5828 5833 5838 5842 5844 5849 5853 5857 5859 5861 5863 5866 5868 5869 5871 5872 5873 5875 5876 5877 5878 5878 5879 5879 5879 5879 5879 5879 5879 5879 5879 5878 5878 5878 5877 5877 5876 5876 5875 5875
5765 5771 5779 5787 5797 5804 5808 5809 5817 5823 5828 5833 5838 5839 5846 5849 5853 5856 5858 5860 5862 5865 5866 5868 5869 5870 5872 5873 5874 5875 5876 5876 5876 5877 5877 5877 5876 5876 5876 5876 5875 5875 5875 5874 5874 5873 5873 5872 5871
5759 5766 5773 5782 5791 5797 5803 5805 5811 5818 5823 5828 5833 5835 5840 5845 5849 5852 5854 5856 5859 5862 5862 5864 5866 5867 5868 5870 5871 5872 5873 5873 5874 5874 5874 5874 5874 5873 5873 5873 5872 5872 5872 5871 5871 5870 5869 5869 5868
5751 5759 5766 5774 5782 5790 5797 5800 5805 5812 5817 5822 5828 5829 5835 5841 5845 5848 5850 5853 5856 5858 5859 5860 5862 5864 5865 5866 5867 5868 5869 5870 5870 5871 5871 5871 5871 5870 5870 5870 5869 5869 5868 5868 5867 5866 5866 5865 5864
5741 5750 5758 5769 5777 5785 5789 5793 5798 5805 5811 5816 5822 5824 5832 5838 5841 5844 5846 5849 5852 5854 5856 5857 5859 5860 5861 5862 5863 5864 5865 5866 5866 5867 5867 5867 5867 5867 5867 5866 5866 5865 5865 5864 5863 5863 5862 5861 5860
5732 5742 5756 5766 5772 5777 5781 5785 5791 5799 5805 5811 5817 5820 5827 5833 5836 5839 5842 5845 5847 5850 5852 5854 5855 5857 5858 5859 5859 5860 5861 5862 5862 5863 5863 5863 5864 5863 5863 5863 5862 5861 5861 5860 5860 5859 5858 5857 5856
5728 5741 5753 5758 5762 5766 5773 5778 5785 5793 5799 5805 5811 5815 5822 5827 5831 5834 5837 5840 5843 5845 5848 5850 5851 5852 5854 5855 5855 5856 5857 5858 5858 5858 5858 5859 5859 5859 5859 5858 5858 5858 5857 5856 5855 5855 5854 5853 5852
5725 5735 5742 5748 5752 5760 5767 5773 5779 5786 5793 5797 5803 5810 5817 5822 5826 5829 5832 5835 5838 5841 5843 5845 5846 5848 5849 5850 5851 5852 5853 5853 5854 5854 5854 5854 5854 5854 5854 5854 5853 5853 5853 5852 5851 5850 5849 5848 5848
5718 5726 5733 5738 5742 5754 5760 5767 5773 5779 5784 5791 5799 5806 5812 5816 5821 5824 5827 5830 5834 5836 5838 5840 5841 5843 5844 5846 5847 5848 5848 5849 5849 5849 5849 5849 5849 5849 5849 5849 5849 5848 5848 5847 5846 5845 5844 5844 5843
5713 5718 5724 5729 5739 5749 5754 5761 5766 5773 5778 5787 5795 5801 5806 5811 5815 5819 5822 5826 5829 5831 5833 5835 5837 5838 5840 5841 5842 5842 5843 5844 5844 5845 5844 5844 5844 5844 5843 5843 5843 5842 5842 5841 5840 5840 5839 5838 5837
5703 5710 5716 5725 5735 5742 5748 5755 5762 5768 5774 5782 5789 5795 5800 5805 5810 5814 5817 5820 5823 5826 5828 5830 5832 5833 5835 5836 5837 5837 5838 5838 5839 5839 5839 5839 5838 5838 5837 5837 5837 5836 5835 5834 5834 5833 5833 5832 5831
5697 5703 5712 5721 5730 5736 5744 5752 5758 5763 5769 5777 5783 5789 5794 5800 5805 5809 5812 5815 5818 5820 5823 5825 5827 5828 5829 5830 5831 5832 5832 5832 5833 5833 5833 5833 5832 5831 5831 5831 5830 5829 5828 5828 5827 5826 5826 5825 5824
5690 5699 5709 5718 5724 5731 5739 5747 5752 5757 5763 5771 5777 5783 5788 5794 5799 5803 5806 5810 5812 5815 5817 5819 5821 5822 5823 5824 5825 5826 5826 5826 5826 5826 5826 5825 5825 5824 5824 5823 5823 5821 5821 5820 5819 5819 5817 5817 5816
5692 5700 5707 5713 5720 5727 5734 5741 5746 5751 5759 5766 5772 5777 5782 5787 5792 5796 5800 5804 5807 5810 5812 5813 5815 5816 5817 5818 5819 5819 5820 5820 5819 5819 5818 5818 5817 5817 5816 5815 5814 5813 5813 5812 5810 5809 5809 5808 5807
5689 5695 5701 5708 5713 5721 5728 5734 5740 5745 5753 5760 5765 5771 5776 5781 5785 5790 5794 5798 5801 5803 5805 5807 5809 5810 5811 5811 5812 5812 5813 5813 5812 5812 5811 5810 5809 5808 5806 5806 5805 5804 5803 5802 5801 5800 5799 5798 5797
5681 5688 5696 5700 5707 5716 5722 5728 5734 5740 5748 5754 5759 5765 5770 5774 5779 5784 5788 5791 5794 5796 5798 5800 5801 5803 5804 5804 5804 5805 5805 5805 5805 5804 5803 5802 5799 5798 5797 5796 5795 5793 5792 5791 5790 5789 5788 5787 5786
5679 5686 5692 5696 5704 5710 5716 5721 5728 5735 5741 5748 5753 5758 5763 5768 5773 5777 5781 5784 5787 5789 5791 5792 5794 5795 5796 5797 5797 5797 5797 5797 5796 5795 5794 5793 5791 5789 5787 5785 5783 5782 5781 5780 5779 5777 5776 5775 5774
5676 5682 5687 5692 5701 5705 5710 5716 5723 5729 5735 5742 5747 5752 5757 5762 5766 5770 5773 5776 5779 5781 5783 5784 5786 5787 5788 5789 5789 5789 5789 5788 5787 5786 5784 5783 5781 5779 5777 5775 5772 5770 5768 5767 5766 5764 5763 5761 5761
5672 5678 5683 5690 5695 5699 5704 5710 5716 5722 5730 5736 5741 5746 5750 5755 5758 5762 5765 5768 5770 5773 5774 5776 5778 5779 5780 5780 5780 5780 5780 5779 5778 5776 5775 5773 5771 5769 5767 5764 5762 5759 5756 5754 5752 5750 5749 5747 5746
5669 5675 5679 5684 5688 5694 5701 5706 5711 5718 5725 5730 5735 5739 5743 5747 5751 5754 5757 5760 5762 5764 5766 5768 5769 5770 5771 5771 5771 5771 5770 5769 5768 5766 5764 5763 5760 5758 5756 5753 5750 5747 5744 5741 5738 5736 5733 5732 5731
5666 5671 5675 5678 5682 5690 5696 5700 5706 5712 5719 5724 5728 5733 5737 5740 5744 5747 5749 5752 5754 5756 5757 5759 5760 5761 5761 5762 5761 5761 5760 5759 5758 5756 5754 5752 5750 5747 5744 5742 5739 5735 5732 5728 5724 5721 5718 5716 5714
5662 5667 5672 5676 5680 5686 5690 5694 5700 5706 5713 5718 5722 5726 5730 5733 5736 5739 5742 5744 5746 5747 5749 5750 5751 5751 5752 5752 5751 5751 5750 5749 5747 5745 5743 5741 5739 5736 5732 5729 5726 5722 5718 5713 5709 5705 5702 5699 5697
5659 5663 5668 5673 5676 5680 5684 5689 5695 5701 5706 5711 5716 5720 5723 5726 5729 5731 5733 5735 5737 5738 5740 5741 5742 5742 5742 5742 5742 5741 5740 5738 5737 5735 5733 5730 5727 5724 5720 5716 5712 5708 5702 5697 5692 5687 5683 5680 5678
5657 5660 5664 5668 5672 5676 5680 5684 5690 5696 5700 5705 5709 5712 5716 5718 5721 5723 5725 5727 5728 5730 5731 5732 5732 5733 5733 5732 5732 5731 5729 5728 5726 5724 5722 5719 5716 5712 5708 5703 5698 5692 5686 5680 5674 5668 5664 5661 5659
5654 5658 5661 5664 5668 5673 5676 5681 5684 5689 5693 5697 5701 5704 5707 5710 5713 5715 5717 5718 5720 5721 5722 5723 5723 5723 5723 5723 5722 5721 5719 5718 5716 5714 5711 5708 5704 5700 5695 5689 5683 5677 5670 5663 5656 5651 5646 5643 5640
5650 5654 5657 5661 5664 5668 5671 5677 5678 5683 5686 5690 5693 5696 5699 5702 5704 5707 5709 5711 5712 5713 5714 5715 5715 5715 5714 5713 5713 5711 5710 5708 5706 5703 5700 5697 5693 5688 5683 5677 5670 5663 5656 5649 5642 5635 5630 5627 5624
Wind_Speed
47 45 45 43 42 40 36 35 36 36 33 31 27 24 23 25 26 24 19 15 15 15 15 14 13 12 12 12 12 12 13 14 15 15 16 17 17 17 17 17 17 18 18 18 18 18 18 18 18
49 48 46 46 44 41 37 37 38 36 34 29 26 25 24 27 26 21 19 17 17 16 16 15 14 13 13 13 13 13 14 14 15 15 16 16 16 16 16 17 17 17 17 17 17 17 17 17 17
52 50 49 49 47 42 36 35 39 39 33 31 30 29 30 32 23 20 20 19 19 18 17 16 16 15 14 14 14 14 14 15 15 16 16 16 16 16 16 16 17 17 18 18 18 17 17 17 17
54 53 53 51 48 43 38 40 43 39 35 33 32 32 33 29 22 22 23 21 20 19 18 18 17 16 15 14 14 14 15 15 16 17 17 17 17 17 17 17 18 18 18 18 18 18 17 17 17
55 55 55 53 49 44 43 44 44 40 37 35 34 35 33 30 27 26 25 23 22 20 19 19 19 18 17 16 15 15 16 17 17 18 19 19 19 18 18 19 19 19 19 19 19 19 18 18 18
52 54 55 54 50 46 44 45 44 40 39 37 35 37 34 32 29 28 26 25 23 21 21 21 20 19 19 18 17 17 18 18 19 20 20 20 20 20 19 20 20 20 19 19 19 19 19 19 19
51 52 53 52 49 47 45 45 45 41 40 39 38 39 36 33 31 29 28 27 25 23 24 23 22 21 21 20 20 20 20 20 20 21 21 21 21 21 21 21 21 21 20 20 19 19 19 19 19
52 50 52 52 50 47 44 45 46 43 41 42 40 41 39 34 32 30 29 28 26 26 25 25 24 23 23 23 23 22 22 22 22 22 22 22 22 22 22 22 22 22 21 20 20 20 20 19 20
56 52 51 49 49 47 43 44 47 45 44 44 41 44 39 33 32 31 30 29 28 27 27 26 25 25 25 24 25 24 24 24 24 23 23 23 23 22 22 22 23 22 22 21 21 21 20 20 20
58 55 49 44 45 45 43 43 46 45 44 43 41 42 38 34 33 32 32 31 30 29 28 27 27 26 26 26 26 26 25 25 25 25 24 24 24 23 23 23 23 23 23 22 22 21 21 21 21
56 54 48 44 43 45 45 46 46 46 44 43 42 42 39 36 35 34 33 32 32 30 29 28 28 28 27 27 27 26 26 26 26 26 26 25 25 24 24 24 24 24 24 24 23 23 22 22 23
53 53 50 47 46 45 46 47 45 46 44 46 47 44 38 37 36 35 35 34 32 31 30 29 29 29 28 28 27 27 27 26 27 27 26 26 26 26 26 26 26 26 25 25 25 24 24 24 24
51 51 51 51 51 46 45 45 45 46 48 49 45 41 38 38 38 37 36 35 33 31 31 30 30 29 29 28 27 27 27 27 27 27 27 27 27 28 28 28 28 28 27 27 27 27 27 27 27
49 50 52 53 51 44 43 45 47 47 49 47 42 41 40 40 38 37 36 34 33 32 31 31 30 30 29 28 28 28 28 27 27 27 28 29 29 29 29 29 29 29 29 29 29 29 29 29 29
51 52 52 52 49 44 43 45 47 47 48 45 43 42 41 40 38 37 35 34 33 32 31 31 31 30 29 29 29 29 29 29 29 29 29 30 31 31 31 31 31 31 32 32 32 32 32 32 31
51 52 51 49 48 45 45 44 45 46 47 45 44 43 42 40 38 36 36 35 34 33 32 32 31 30 30 30 30 30 30 30 31 31 32 32 34 34 34 34 35 35 36 36 35 35 35 35 35
51 50 49 48 47 46 46 45 45 47 47 45 44 43 42 41 38 37 36 35 34 33 33 32 32 31 31 32 31 31 31 32 33 34 35 35 36 37 38 38 38 39 39 39 39 39 39 39 39
46 46 46 46 46 45 46 46 45 47 47 44 43 42 42 41 39 38 37 35 34 34 34 34 33 33 33 33 33 33 33 34 35 37 38 39 39 40 41 41 41 42 42 42 43 43 43 43 43
43 45 45 45 46 45 45 47 46 48 46 43 43 43 43 41 40 39 37 36 35 36 36 35 35 34 34 35 35 35 35 36 38 39 40 41 42 43 44 44 44 45 45 45 46 46 46 46 47
43 44 45 44 45 44 45 46 47 49 46 43 42 43 42 41 39 38 38 37 37 37 37 37 36 36 36 36 37 38 38 39 40 41 42 43 45 46 47 47 48 48 48 48 49 49 50 50 50
40 42 43 45 43 41 44 46 46 48 47 44 42 42 41 40 39 38 38 37 37 37 37 37 37 37 38 38 39 40 40 41 42 43 43 44 46 47 49 50 50 51 52 52 52 52 53 54 54
38 41 41 43 40 39 42 44 43 45 45 44 42 41 40 39 38 37 37 37 37 37 37 38 38 38 39 39 40 41 41 42 43 44 45 45 46 48 49 51 52 54 55 55 55 55 56 57 57
37 39 40 40 39 40 41 42 42 43 43 42 41 40 39 37 37 36 36 36 36 36 36 37 37 38 39 40 41 42 42 42 43 44 45 46 47 48 50 51 53 54 56 58 58 59 59 60 60
35 37 38 38 39 41 39 39 41 40 38 39 40 39 37 36 35 35 34 35 35 36 37 37 38 39 40 40 41 41 42 43 43 44 45 46 48 49 50 51 53 55 57 59 60 62 63 63 63
33 36 37 38 39 39 38 38 39 39 37 36 36 37 36 36 35 35 35 35 36 36 37 38 39 39 40 40 40 41 42 42 43 44 45 46 47 48 50 51 53 55 58 60 62 64 65 66 66
32 33 35 36 37 37 38 38 38 37 34 34 35 35 36 36 36 36 36 36 36 37 38 38 39 39 39 39 40 41 41 42 42 43 44 45 46 48 49 51 53 55 58 61 63 64 66 67 67
31 32 33 33 34 35 37 38 38 35 33 33 34 34 35 35 35 35 36 36 37 37 37 37 37 38 38 38 39 39 40 41 41 41 42 43 44 46 48 50 53 55 58 61 63 64 64 65 66
29 29 31 32 32 33 34 35 36 35 34 34 34 34 34 34 35 35 36 36 36 36 36 36 36 37 37 37 38 38 39 39 39 39 40 42 43 45 48 51 53 55 57 59 60 61 61 62 62
27 29 30 31 32 32 33 35 34 34 35 35 35 35 35 35 35 35 35 35 35 35 35 35 35 35 36 36 36 37 37 37 37 38 39 40 42 44 46 49 50 51 53 54 55 56 56 56 57
24 26 28 30 31 32 32 34 31 31 32 33 34 34 34 35 35 35 34 34 34 33 33 33 33 34 34 34 34 35 35 35 36 37 37 38 40 42 44 46 46 47 48 49 50 50 49 49 49
Wind_Direction
213 213 213 214 214 213 211 214 217 217 217 216 219 224 226 225 225 229 232 233 238 243 247 251 255 260 267 272 276 279 282 284 286 286 288 290 292 294 295 297 298 299 300 300 300 300 300 300 298
213 213 214 215 215 214 212 216 220 218 219 218 219 222 226 233 230 233 236 235 238 242 246 251 255 258 263 268 274 278 282 284 285 286 288 290 293 295 297 298 299 300 300 300 299 299 299 298 297
213 213 214 215 215 214 212 220 224 220 218 218 219 220 222 227 226 232 236 237 239 243 247 251 254 256 259 263 269 274 278 281 283 285 288 290 293 295 298 299 300 300 299 299 298 297 297 296 295
215 215 215 215 214 214 213 219 222 220 218 219 220 222 226 231 229 230 235 238 240 244 248 251 253 255 257 259 263 267 273 278 282 285 288 291 293 296 297 298 299 300 299 299 299 297 297 296 294
218 217 217 216 214 213 216 222 222 221 220 220 221 225 226 229 228 229 233 237 240 244 248 250 253 255 257 258 260 264 270 277 282 286 289 291 293 295 295 297 298 300 300 300 299 298 297 296 295
219 219 219 217 215 214 217 224 224 224 223 222 223 228 225 228 230 231 233 237 240 242 246 249 253 256 259 261 263 266 271 277 282 286 289 291 293 294 295 296 298 300 300 300 299 298 298 297 295
219 220 221 219 217 216 218 223 225 225 225 224 224 230 227 227 229 231 233 236 238 240 244 248 253 257 261 265 268 271 274 278 282 286 288 291 293 294 295 296 297 298 299 300 299 298 297 296 295
220 221 221 220 218 217 219 224 226 225 225 225 225 230 229 227 229 231 233 236 237 239 243 249 254 259 264 269 273 276 279 281 284 285 287 289 291 293 295 296 296 297 297 298 297 296 295 295 294
221 220 219 219 220 218 219 224 225 225 226 226 226 230 232 229 231 232 234 235 237 239 244 250 255 261 266 272 276 279 282 284 285 286 288 289 290 292 293 294 294 294 295 295 295 295 294 293 293
224 220 217 218 220 219 218 222 224 223 224 226 227 231 231 229 230 231 233 235 238 241 245 251 257 262 267 272 276 279 283 285 287 288 289 290 291 292 291 291 292 292 292 292 292 292 292 292 291
225 221 218 219 220 218 217 220 222 222 222 223 224 227 227 227 228 231 233 236 239 243 247 252 257 262 267 271 274 278 281 284 286 288 290 291 292 292 291 290 289 289 290 289 289 289 289 289 289
224 224 223 222 221 219 218 220 221 222 221 222 223 225 225 226 228 230 234 237 241 244 249 253 257 261 265 269 273 277 280 283 286 288 291 292 292 291 291 290 289 289 288 287 286 286 286 286 287
221 223 224 223 222 219 219 219 220 221 221 222 223 223 223 225 228 230 234 238 241 245 249 253 257 261 265 268 272 275 278 282 285 289 291 292 292 292 292 291 290 289 287 285 284 284 285 286 286
218 221 222 223 223 219 219 218 219 220 222 222 221 222 223 225 227 231 235 239 242 245 248 253 257 261 265 268 271 274 278 280 283 287 289 290 291 291 291 291 290 289 287 285 284 284 285 285 286
216 219 221 223 223 218 218 218 219 221 224 223 221 223 223 225 227 231 235 238 242 245 249 253 257 261 265 268 271 275 278 281 284 286 287 289 290 290 289 289 288 287 285 285 284 284 284 284 284
217 219 221 222 223 219 218 218 220 222 224 224 223 224 225 225 227 230 234 238 242 246 249 253 257 261 265 268 271 275 278 281 284 285 286 286 287 288 288 287 286 285 284 284 284 284 284 283 282
216 218 221 222 223 222 219 217 220 222 224 224 225 226 227 227 228 231 235 238 242 246 251 254 258 261 264 268 271 274 277 280 282 283 284 285 286 287 287 287 286 286 285 285 284 283 282 282 282
219 220 222 224 224 224 222 219 221 223 224 226 228 229 230 230 230 233 236 240 244 248 252 254 257 260 264 267 271 274 277 279 281 283 285 286 287 287 287 287 286 286 285 284 283 282 281 281 281
219 220 221 224 225 225 224 221 221 225 224 226 229 232 233 233 234 235 239 242 245 249 252 255 258 260 263 267 271 273 276 278 281 283 285 286 287 286 285 285 284 284 283 282 281 281 280 280 279
217 218 219 223 225 226 226 224 222 225 224 226 230 233 235 237 238 239 241 244 247 250 253 256 258 261 263 267 270 274 276 279 281 282 283 284 284 284 284 284 284 283 282 281 280 279 278 278 277
218 220 221 224 226 226 228 227 224 225 226 226 230 234 237 239 241 243 245 248 250 252 253 255 258 260 263 267 271 274 277 279 280 281 280 280 281 281 282 283 283 282 282 281 279 278 277 277 276
219 221 223 225 225 227 228 228 226 226 226 227 230 234 238 240 243 245 247 249 251 253 254 256 258 260 264 267 271 274 276 278 279 280 280 280 280 280 280 281 281 281 281 281 279 278 277 276 275
221 222 224 225 225 227 227 229 228 226 226 227 230 234 238 241 244 246 248 251 253 255 257 258 260 262 265 268 271 274 276 278 278 279 279 279 279 279 279 280 280 280 280 280 279 278 276 275 274
221 222 224 225 225 227 228 230 230 227 226 228 231 235 238 242 245 248 250 253 256 258 260 262 263 265 268 270 272 274 276 277 278 279 280 280 280 280 280 281 281 281 280 280 279 278 277 275 274
220 222 224 226 226 227 227 229 230 229 225 227 232 236 239 243 247 250 253 256 258 260 262 264 265 267 269 270 272 273 275 276 278 279 280 281 282 282 283 282 282 282 281 280 279 278 277 275 273
222 223 225 228 229 228 227 228 229 230 228 229 233 237 241 244 248 252 255 258 259 261 262 264 265 267 268 270 272 273 275 277 278 280 281 283 284 285 285 286 285 284 283 282 281 279 277 274 272
222 223 226 227 230 231 230 230 231 232 233 234 236 240 243 247 250 253 255 257 259 260 261 263 264 266 268 270 272 274 276 278 280 282 284 286 287 288 289 289 289 288 287 285 283 281 278 275 272
223 224 225 226 229 232 234 234 233 234 236 238 240 243 246 248 250 252 254 255 257 259 260 262 264 266 268 271 273 275 277 280 283 285 287 289 290 291 292 293 293 292 291 289 287 284 281 278 274
220 222 225 228 229 231 237 239 236 236 238 240 243 245 247 248 249 250 251 253 255 257 259 262 264 267 269 272 274 278 281 284 286 288 290 292 293 295 297 297 298 298 296 295 292 289 285 281 276
223 224 225 226 229 232 237 242 240 240 240 241 242 243 244 245 246 248 250 252 254 257 259 262 265 268 271 274 277 280 283 285 287 290 292 294 297 299 301 301 302 303 302 300 297 293 288 284 279